Crescent City, CA

7:08 AM PDT on September 19, 2017 (GMT -0700)
McNamara

Weather History for KCEC - February, 2013

Change the Weather History Date:

Monday, February 4, 2013

  Actual Average Record
Temperature  
Mean Temperature 44 °F 47 °F  
Max Temperature 49 °F 53 °F 71 °F (1993)
Min Temperature 38 °F 42 °F 30 °F (1989)
Degree Days  
Heating Degree Days 21 18  
Month to date heating degree days 72 72  
Since 1 July heating degree days 2776 2758  
Moisture  
Dew Point 43 °F    
Average Humidity 90    
Maximum Humidity 100    
Minimum Humidity 80    
Precipitation  
Precipitation 0.00 in 0.36 in 2.72 in (1951)
Month to date precipitation 0.00 1.36  
Year to date precipitation 5.20 11.75  
Since 1 July precipitation 38.90  
Snow  
Snow 0.00 in - - ()
Month to date snowfall 0.0  
Since 1 July snowfall 0.0  
Snow Depth 0.00 in    
Sea Level Pressure  
Sea Level Pressure 30.15 in    
Wind  
Wind Speed 5 mph (SSE)    
Max Wind Speed 14 mph    
Max Gust Speed 20 mph    
Visibility 10 miles    
Events      
T = Trace of Precipitation, MM = Missing Value Source: NWS Daily Summary

Daily Weather History Graph

Daily Weather History Graph

Search for Another Location

Airport or City:

Trip Planner

Search our weather history database for the weather conditions in past years. The results will help you decide how hot, cold, wet, or windy it might be!

Date:

Astronomy

Feb. 04, 2013 Rise Set
Actual Time 7:25 AM PST 5:36 PM PST
Civil Twilight 6:56 AM PST 6:05 PM PST
Nautical Twilight 6:23 AM PST 6:39 PM PST
Astronomical Twilight 5:50 AM PST 7:11 PM PST
Moon 2:08 AM PST (2/4) 12:03 PM PST (2/4)
Length of Visible Light 11h 09m
Length of Day
10h 11m
Last Quarter, 36% of the Moon is Illuminated
Feb 4
Last Quarter
Feb 9
New
Feb 17
First Quarter
Feb 25
Full
Mar 4
Last Quarter

Hourly Weather History & Observations

Time (PST) Temp. Windchill Dew Point Humidity Pressure Visibility Wind Dir Wind Speed Gust Speed Precip Events Conditions
12:43 AM 42.8 °F 40.1 °F 39.2 °F 87% 30.22 in 10.0 mi NE 4.6 mph - N/A   Scattered Clouds
12:56 AM 42.1 °F - 39.9 °F 92% 30.22 in 10.0 mi Calm Calm - N/A   Partly Cloudy
2:56 AM 39.9 °F - 39.0 °F 97% 30.21 in 10.0 mi Calm Calm - N/A   Clear
3:56 AM 41.0 °F - 39.9 °F 96% 30.19 in 10.0 mi Calm Calm - N/A   Clear
4:56 AM 39.9 °F - 39.0 °F 97% 30.19 in 10.0 mi Calm Calm - N/A   Clear
5:56 AM 41.0 °F 37.1 °F 39.0 °F 93% 30.17 in 10.0 mi East 5.8 mph - N/A   Clear
6:56 AM 39.9 °F - 39.0 °F 97% 30.17 in 10.0 mi Calm Calm - N/A   Clear
7:56 AM 39.9 °F 37.8 °F 39.0 °F 97% 30.17 in 10.0 mi East 3.5 mph - N/A   Clear
8:56 AM 45.0 °F - 43.0 °F 93% 30.19 in 10.0 mi Calm Calm - N/A   Clear
9:07 AM 46.4 °F - 44.6 °F 93% 30.18 in 6.0 mi Calm Calm - N/A   Scattered Clouds
9:16 AM 46.4 °F - 44.6 °F 93% 30.18 in 6.0 mi Calm Calm - N/A   Mostly Cloudy
9:56 AM 46.9 °F - 45.0 °F 93% 30.18 in 6.0 mi SSE 3.5 mph - N/A   Overcast
10:25 AM 46.4 °F 44.3 °F 44.6 °F 93% 30.18 in 9.0 mi South 4.6 mph - N/A   Scattered Clouds
10:56 AM 48.0 °F - 44.1 °F 86% 30.18 in 10.0 mi South 4.6 mph - N/A   Mostly Cloudy
11:44 AM 48.2 °F - 44.6 °F 87% 30.17 in 10.0 mi Variable 3.5 mph - N/A   Overcast
11:56 AM 48.0 °F - 44.1 °F 86% 30.17 in 10.0 mi SSW 5.8 mph - N/A   Overcast
12:23 PM 48.2 °F - 42.8 °F 82% 30.16 in 10.0 mi South 6.9 mph - N/A   Overcast
12:56 PM 46.9 °F - 43.0 °F 86% 30.15 in 10.0 mi SSW 6.9 mph - N/A   Overcast
1:32 PM 48.2 °F - 42.8 °F 82% 30.14 in 10.0 mi Calm Calm - N/A   Overcast
1:56 PM 48.0 °F - 44.1 °F 86% 30.14 in 10.0 mi Calm Calm - N/A   Overcast
2:07 PM 48.2 °F - 44.6 °F 87% 30.13 in 10.0 mi South 3.5 mph - N/A   Overcast
2:56 PM 48.9 °F - 43.0 °F 80% 30.13 in 10.0 mi ESE 4.6 mph - N/A   Overcast
3:56 PM 48.0 °F - 42.1 °F 80% 30.13 in 10.0 mi South 4.6 mph - N/A   Overcast
4:19 PM 48.2 °F - 42.8 °F 82% 30.12 in 10.0 mi South 6.9 mph - N/A   Overcast
4:39 PM 48.2 °F - 42.8 °F 82% 30.12 in 10.0 mi SSE 5.8 mph - N/A   Overcast
4:56 PM 48.0 °F - 43.0 °F 83% 30.13 in 10.0 mi South 6.9 mph - N/A   Overcast
5:03 PM 48.2 °F - 44.6 °F 87% 30.12 in 10.0 mi SSE 6.9 mph - N/A   Overcast
5:30 PM 48.2 °F - 44.6 °F 87% 30.12 in 10.0 mi SE 4.6 mph - N/A   Overcast
5:56 PM 48.0 °F - 44.1 °F 86% 30.12 in 10.0 mi SE 6.9 mph - N/A   Overcast
6:36 PM 48.2 °F - 44.6 °F 87% 30.10 in 10.0 mi SE 11.5 mph - N/A   Overcast
6:56 PM 46.9 °F - 44.1 °F 90% 30.10 in 10.0 mi SSE 11.5 mph - N/A   Overcast
7:04 PM 46.4 °F 41.9 °F 44.6 °F 93% 30.09 in 10.0 mi SSE 9.2 mph - N/A   Overcast
7:56 PM 46.9 °F - 43.0 °F 86% 30.09 in 10.0 mi SSE 10.4 mph - N/A   Overcast
8:56 PM 48.0 °F - 43.0 °F 83% 30.10 in 10.0 mi SSE 6.9 mph - N/A   Overcast
9:56 PM 46.9 °F - 43.0 °F 86% 30.12 in 10.0 mi SSW 9.2 mph - N/A   Overcast
10:56 PM 46.9 °F - 41.0 °F 80% 30.12 in 10.0 mi SSW 11.5 mph - N/A   Overcast
11:56 PM 46.9 °F - 41.0 °F 80% 30.14 in 10.0 mi SSW 11.5 mph 19.6 mph N/A   Overcast